Regional Weather Roundup
Issued by NWS Sioux Falls, SD

Home | Current Version | Previous Version | Graphics & Text | Print | Product List | Glossary Off
Versions: 1 2 3 4 5 6 7 8 9 10 11 12 13 14 15 16 17 18 19 20 21 22 23 24 25 26 27 28 29 30 31 32 33 34 35 36 37 38 39 40 41 42 43 44 45 46 47 48 49 50

000
ASUS43 KFSD 182210
RWRFSD

WEATHER ROUNDUP FOR SE SOUTH DAKOTA/SW MINNESOTA/NW IOWA
NATIONAL WEATHER SERVICE SIOUX FALLS SD
500 PM CDT FRI APR 18 2014

NOTE: "FAIR" INDICATES FEW OR NO CLOUDS BELOW 12,000 FEET WITH NO
SIGNIFICANT WEATHER AND OR OBSTRUCTIONS TO VISIBILITY.


SDZ038>040-050-052>070-182300-
SOUTHEAST SOUTH DAKOTA

CITY           SKY/WX    TMP DP  RH WIND       PRES   REMARKS
CHAMBERLAIN      N/A     75  37  25 S31G43    29.77F
HURON          MOSUNNY   70  38  31 S29G41    29.84F
MADISON        FAIR      64  36  34 S30G45    29.97F
MITCHELL       MOSUNNY   71  40  32 S32G49    29.89F
SIOUX FALLS    PTSUNNY   65  35  33 S28G40    30.01F
WINNER         FAIR      75  37  25 S26G38    29.78F
YANKTON        MOSUNNY   68  39  34 S28G36    29.97F
$$

MNZ071-072-080-081-089-090-097-098-182300-
SOUTHWEST MINNESOTA

CITY           SKY/WX    TMP DP  RH WIND       PRES   REMARKS
FAIRMONT       SUNNY     57  32  38 SE20G29   30.18F
JACKSON        SUNNY     61  30  31 SE22G30   30.14F
LUVERNE        SUNNY     64  32  29 S20G30    30.05F
MARSHALL       SUNNY     61  37  41 SE23G37   30.06F
MONTEVIDEO     MOSUNNY   52  39  62 SE24      30.11F
PIPESTONE      SUNNY     64  32  29 S28G36    30.03F
REDWOOD FALLS  SUNNY     56  38  50 SE24G31   30.14F
TRACY          SUNNY     61  36  40 SE24G33   30.09F
WINDOM         SUNNY     61  30  31 SE24G31   30.12F
WORTHINGTON    SUNNY     63  30  29 SE22G36   30.11F
$$

IAZ001>003-012>014-020>022-031-032-NEZ013-014-SDZ071-182300-
NORTHWEST IOWA

CITY           SKY/WX    TMP DP  RH WIND       PRES   REMARKS
CHEROKEE       SUNNY     66  34  30 S24G30    30.11F
DENISON        SUNNY     66  30  26 S16G26    30.12F
ESTHERVILLE    SUNNY     60  33  36 SE24G35   30.15F
LE MARS        SUNNY     68  37  32 S21G30    30.07F
ORANGE CITY    SUNNY     66  30  26 S18G28    30.07F
SHELDON        SUNNY     64  34  32 S25G35    30.07F
SIOUX CITY     SUNNY     69  36  29 S26G33    30.07F
SPENCER        SUNNY     64  31  28 S29G37    30.12F
STORM LAKE     SUNNY     64  32  29 S20G33    30.13F
$$

ABBREVIATIONS USED IN REMARKS
   TC - TEMPERATURE IN CELSIUS
  WCI - WIND CHILL INDEX
   HX - HEAT INDEX
  VSB - VISIBILITY




USA.gov is the U.S. government's official web portal to all federal, state and local government web resources and services.